Regional Weather Roundup
Issued by NWS

Home | Current Version | Previous Version | Graphics & Text | Print | Product List | Glossary On
Versions: 1 2 3 4 5 6 7 8 9 10 11 12 13 14 15 16 17 18 19 20 21 22 23 24 25 26 27 28 29 30 31 32 33 34 35 36 37 38 39 40 41 42 43 44 45 46 47 48 49 50
000
ASUS43 KLSX 271307
RWRMO

WEATHER SUMMARY FOR MISSOURI
NATIONAL WEATHER SERVICE SPRINGFIELD MO
800 AM CDT WED MAY 27 2015

NOTE: "FAIR" INDICATES FEW OR NO CLOUDS BELOW 12,000 FEET WITH NO
       SIGNIFICANT WEATHER AND/OR OBSTRUCTIONS TO VISIBILITY.
       CURRENT SKY AND/OR WEATHER CONDITIONS ARE NOT AVAILABLE FOR
       CHILLICOTHE AND FARMINGTON.

MOZ001>031-035>038-043-044-053-054-271400-
...NORTHERN AND WESTERN MISSOURI...

CITY           SKY/WX    TMP DP  RH WIND       PRES   REMARKS
KANSAS CTY INT MOSUNNY   64  58  80 W3        30.07R
KANSAS C DTWN  SUNNY     67  57  70 CALM      30.06S
LEE`S SUMMIT   SUNNY     66  57  72 VRB3      30.08R
ST JOSEPH      SUNNY     63  55  75 SW3       30.06R
CHILLICOTHE      N/A     65  59  81 CALM      30.06R
KIRKSVILLE     SUNNY     64  59  83 W6        30.04R

$$
MOZ066>068-077>081-088>096-101>105-271400-
...SOUTHWEST MISSOURI...

CITY           SKY/WX    TMP DP  RH WIND       PRES   REMARKS
SPRINGFIELD    PTSUNNY   68  65  90 NW6       30.10R
JOPLIN         PTSUNNY   67  64  90 N6        30.10R

$$
MOZ032>034-039>042-045>050-055>058-069>072-271400-
...CENTRAL MISSOURI...

CITY           SKY/WX    TMP DP  RH WIND       PRES   REMARKS
COLUMBIA       CLOUDY    67  63  87 SW7       30.07R
JEFFERSON CITY CLOUDY    69  61  75 W3        30.05S
ROLLA          CLOUDY    63  61  93 SE3       30.05F
SEDALIA        SUNNY     68  61  78 W6        30.07R
WHITEMAN AFB   MOSUNNY   67  61  80 W6        30.05S
WARRENSBURG    SUNNY     66  59  77 W6        30.07R

$$
MOZ051-052-059>065-271400-
...EAST CENTRAL MISSOURI...

CITY           SKY/WX    TMP DP  RH WIND       PRES   REMARKS
ST LOUIS INTL  CLOUDY    70  62  76 SW15G25   30.08R
SPIRIT OF STL  CLOUDY    68  63  84 S6        30.06R
ST CHARLES     CLOUDY    69  62  78 SW15      30.05R

$$
MOZ072>076-082>087-097>100-106>115-271400-
...SOUTH CENTRAL AND SOUTHEAST MISSOURI...

CITY           SKY/WX    TMP DP  RH WIND       PRES   REMARKS
CAPE GIRARDEAU MOSUNNY   70  67  90 SW6       30.09R
FARMINGTON     CLOUDY    63  57  82 NW12G25   30.16F
POPLAR BLUFF   PTSUNNY   69  65  86 NW16G23   30.11R
WEST PLAINS    CLOUDY    66  62  87 NE7       30.12R

$$



USA.gov is the U.S. government's official web portal to all federal, state and local government web resources and services.